Location: Newark
(42.7133°N, 87.7910°W)
Time: 08:53:57
(UTC+00:00)

Tiros 1 - Pass Details

Date: 27 September 2019
Orbit: 630 x 664 km, 48.4° (Epoch: 13 October)

Event Time Altitude Azimuth Distance (km) Brightness Sun altitude
Rises 18:37:07 0° 278° (W) 2,978 10.7 43.9°
Reaches altitude 10° 18:39:36 10° 286° (WNW) 2,061 9.9 43.7°
Maximum altitude 18:44:06 41° 357° (N) 938 8.0 43.4°
Drops below altitude 10° 18:48:34 10° 68° (ENE) 2,040 9.5 43.1°
Sets 18:51:00 0° 76° (ENE) 2,944 10.3 42.9°
